Ingonish Beach, Nova Scotia

3:58 PM AST on January 24, 2017 (GMT -0400)
Ingonish Beach

Weather History for CXIB - July, 2013

Change the Weather History Date:

Saturday, July 6, 2013

  Actual Average Record
Temperature  
Mean Temperature 78 °F -  
Max Temperature 90 °F - - ()
Min Temperature 64 °F - - ()
Cooling Degree Days 12    
Growing Degree Days 28 (Base 50)    
Moisture  
Dew Point 61 °F    
Average Humidity 62    
Maximum Humidity 89    
Minimum Humidity 38    
Precipitation  
Precipitation 0.00 in - - ()
Sea Level Pressure  
Sea Level Pressure 29.81 in    
Wind  
Wind Speed 5 mph ()    
Max Wind Speed 8 mph    
Max Gust Speed -    
T = Trace of Precipitation, MM = Missing Value Source: Averaged Metar Reports

Daily Weather History Graph

Daily Weather History Graph

Search for Another Location

Airport or City:

Trip Planner

Search our weather history database for the weather conditions in past years. The results will help you decide how hot, cold, wet, or windy it might be!

Date:

Astronomy

Jul. 06, 2013 Rise Set
Actual Time 5:15 AM ADT 8:56 PM ADT
Civil Twilight 4:36 AM ADT 9:35 PM ADT
Nautical Twilight 3:44 AM ADT 10:27 PM ADT
Astronomical Twilight 2:32 AM ADT 11:38 PM ADT
Moon 4:00 AM ADT (7/6) 7:31 PM ADT (7/6)
Length of Visible Light 16h 58m
Length of Day
15h 41m
Waning Crescent, 3% of the Moon is Illuminated
Jul 6
Waning Crescent
Jul 8
New
Jul 16
First Quarter
Jul 22
Full
Jul 29
Last Quarter

Hourly Weather History & Observations

Time (ADT) Temp. Heat Index Dew Point Humidity Pressure Visibility Wind Dir Wind Speed Gust Speed Precip Events Conditions
12:00 AM 75.0 °F - 64.6 °F 70% 29.84 in - WSW 5.8 mph - N/A   Unknown
1:00 AM 74.8 °F - 63.5 °F 68% 29.83 in - West 5.8 mph - N/A   Unknown
2:00 AM 75.7 °F - 61.9 °F 62% 29.83 in - WSW 6.9 mph - N/A   Unknown
3:00 AM 78 °F - 61 °F 45% 29.82 in - West 6.9 mph - -  
3:00 AM 77.9 °F - 60.6 °F 55% 29.82 in - West 6.9 mph - N/A   Unknown
4:00 AM 76.8 °F - 60.8 °F 58% 29.83 in - West 6.9 mph - N/A   Unknown
5:00 AM 74.7 °F - 61.0 °F 62% 29.83 in - West 3.5 mph - N/A   Unknown
6:00 AM 73.2 °F - 60.6 °F 65% 29.84 in - WSW 8.1 mph - N/A   Unknown
7:00 AM 73.8 °F - 61.2 °F 65% 29.83 in - WSW 8.1 mph - N/A   Unknown
8:00 AM 79.7 °F - 61.7 °F 54% 29.83 in - WSW 6.9 mph - N/A   Unknown
9:00 AM 84 °F - 62 °F 38% 29.83 in - West 6.9 mph - -  
9:00 AM 83.8 °F 84.5 °F 62.1 °F 48% 29.83 in - West 6.9 mph - N/A   Unknown
10:00 AM 86.2 °F 86.3 °F 61.3 °F 43% 29.83 in - WSW 5.8 mph - N/A   Unknown
11:00 AM 87.3 °F 87.5 °F 61.3 °F 42% 29.83 in - SW 4.6 mph - N/A   Unknown
12:00 PM 88.7 °F 88.3 °F 60.3 °F 38% 29.82 in - SW 5.8 mph - N/A   Unknown
1:00 PM 73.0 °F - 58.8 °F 61% 29.83 in - ENE 3.5 mph - N/A   Unknown
2:00 PM 72.1 °F - 59.2 °F 64% 29.82 in - NNE 3.5 mph - N/A   Unknown
3:00 PM 74 °F - 60 °F 53%  in - ENE 3.5 mph - -  
3:00 PM 74.5 °F - 60.4 °F 61% - - ENE 3.5 mph - N/A   Unknown
4:00 PM 72.9 °F - 60.3 °F 65% 29.80 in - NE 3.5 mph - N/A   Unknown
5:00 PM 72.3 °F - 60.1 °F 65% 29.79 in - ENE 3.5 mph - N/A   Unknown
6:00 PM 70.5 °F - 60.4 °F 70% 29.78 in - NNE 3.5 mph - N/A   Unknown
7:00 PM 70.5 °F - 61.0 °F 72% 29.78 in - NNE 2.3 mph - N/A   Unknown
8:00 PM 68.7 °F - 61.2 °F 77% 29.78 in - NE 1.2 mph - N/A   Unknown
9:00 PM 67 °F - 61 °F 76% 29.78 in - North 1.2 mph - -  
9:00 PM 67.1 °F - 61.2 °F 81% 29.78 in - North 1.2 mph - N/A   Unknown
10:00 PM 65.3 °F - 61.3 °F 87% 29.79 in - Calm Calm - N/A   Unknown
11:00 PM 64.4 °F - 61.0 °F 89% 29.78 in - Calm Calm - N/A   Unknown